2019-093C (44881 NORAD) Tracking and Keplerian Element Data

This shows tracking and keplerian element data for the satellite.

Feedback or suggestion? Click here.




ElementValue
Catalog44881
Name2019-093C
Epoch Orbit429
Epoch Day18.16244866
Epoch Year2020
RAAN95.1283
Inclination97.9748
Eccentricity0.0015892
Argument of Perigee162.0184
Mean Anonmoly198.1604
Mean Motion14.81405864
Decay Rate-5E-08
L11 44881U 19093C 20018.16244866 -.00000005 00000-0 62387-5 0 9992
L22 44881 97.9748 95.1283 0015892 162.0184 198.1604 14.81405864 4291

Live tracking and technical data element details for 2019-093C (NORAD 44881). 2019-093C can be tracked NOW for your location showing map with azimuth and elevation plus other details from your city location.

Track the satellite on the map from your city or location and see movement details for azimuth, elevation, latitude, longitude, range, height, and movement on the map or in text.







IsCatalogInMostPopularTable: catalog: 44881, numindb: 5
Update: records affected: 1



GetName: 44881 2019-093C

Hit Count: updated at: Mon, 20 Jan 2020 03:41:56 GMT